Weather in Andzhievsky

Russia / Stavropol Krai     44°14′10″N   43°05′34″E
temp.,
°C
wind,
m/s
gust,
m/s
humid.,
%
clouds,
%
prec.,
mm/h
press.,
hPa
HPBL,
m
1 july, fri
fri100:00+18wsw118634 0.3 101211
03:00+17wsw119110 0.9 101111
06:00+18w22896 1.8 101288
09:00+22nw336961 2.8 1011667
12:00+25n335599 2.3 10111391
15:00+27nw1347100 2.6 10101743
18:00+24w2459100 0.0 1010139
21:00+19wsw22693 0.0 101122
2 july, sat
sat200:00+17wsw22720 0.0 101125
03:00+16wsw23730 0.0 101029
06:00+17w39745 0.0 1011322
09:00+20nw57550 0.0 10121030
12:00+21nw695195 0.0 10121845
15:00+23nw910370 0.0 10121991
18:00+20nw79410 0.0 10141395
21:00+14wsw46590 0.0 1016119
3 july, sun
sun300:00+13wsw49601 0.0 1016172
03:00+12w49580 0.0 1015167
06:00+14w412610 0.0 1016419
09:00+20wnw810500 0.0 10161350
12:00+23nw79420 0.0 10152001
15:00+24nw78382 0.0 10142366
18:00+22wnw57431 0.0 1015999
21:00+16wsw48572 0.0 1016128
4 july, mon
mon400:00+16w2457100 0.0 101675
03:00+17wsw235262 0.0 101673
06:00+16wsw23595 0.0 101691
09:00+23wnw34420 0.0 1016915
12:00+26wnw333513 0.0 10152352
15:00+26nw443582 0.0 10142400
18:00+22nnw2555100 0.0 1015161
21:00+18wsw226627 0.0 101615
5 july, tue
tue500:00+19sw346031 0.0 101568
03:00+17wsw33603 0.0 101631
06:00+19wsw235875 0.0 101693
09:00+22nnw245425 0.0 1017676
12:00+26ne334242 0.0 10172178
15:00+28ne323310 0.0 10152623
18:00+26ene56392 0.0 1015527
21:00+20e384216 0.0 1017150